Weather History for Hayden, CO

Change the Weather History Date:

Tuesday, October 2, 2012

  Actual Average Record
Temperature  
Mean Temperature 56 °F -  
Max Temperature 73 °F 70 °F 83 °F (1992)
Min Temperature 39 °F 35 °F 22 °F (1964)
Degree Days  
Heating Degree Days 9    
Growing Degree Days 6 (Base 50)    
Moisture  
Dew Point 27 °F    
Average Humidity 38    
Maximum Humidity 65    
Minimum Humidity 16    
Precipitation  
Precipitation 0.00 in - - ()
Sea Level Pressure  
Sea Level Pressure 30.15 in    
Wind  
Wind Speed 10 mph (SSE)    
Max Wind Speed 18 mph    
Max Gust Speed 23 mph    
Visibility 10 miles    
Events      
Averages and records for this station are not official NWS values.
T = Trace of Precipitation, MM = Missing Value Source: NWS Daily Summary

Daily Weather History Graph

Daily Weather History Graph

Search for Another Location

Airport:

Trip Planner

Search our weather history database for the weather conditions in past years. The results will help you decide how hot, cold, wet, or windy it might be!

Date:

Astronomy

Oct. 02, 2012 Rise Set
Actual Time 7:06 AM MDT 6:48 PM MDT
Civil Twilight 6:39 AM MDT 7:15 PM MDT
Nautical Twilight 6:08 AM MDT 7:47 PM MDT
Astronomical Twilight 5:36 AM MDT 8:19 PM MDT
Moon 8:02 PM MDT (10/2) 9:37 AM MDT (10/2)
Length of Visible Light 12h 35m
Length of Day
11h 41m
Waning Gibbous, 94% of the Moon is Illuminated
Oct 2
Waning Gibbous
Oct 8
Last Quarter
Oct 15
New
Oct 21
First Quarter
Oct 29
Full

Hourly Weather History & Observations

Time (MDT) Temp. Windchill Dew Point Humidity Pressure Visibility Wind Dir Wind Speed Gust Speed Precip Events Conditions
12:15 AM 46.4 °F 41.5 °F 28.4 °F 50% 30.23 in 10.0 mi SSE 10.4 mph - N/A   Clear
12:35 AM 46.4 °F 41.5 °F 28.4 °F 50% 30.23 in 10.0 mi SSE 10.4 mph - N/A   Clear
1:15 AM 44.6 °F 38.8 °F 28.4 °F 53% 30.23 in 10.0 mi South 11.5 mph - N/A   Clear
1:35 AM 46.4 °F 41.1 °F 28.4 °F 50% 30.23 in 10.0 mi SSE 11.5 mph - N/A   Clear
2:15 AM 44.6 °F 39.7 °F 28.4 °F 53% 30.24 in 10.0 mi SSE 9.2 mph - N/A   Clear
2:35 AM 42.8 °F 36.2 °F 28.4 °F 57% 30.23 in 10.0 mi South 12.7 mph - N/A   Clear
2:55 AM 42.8 °F 37.5 °F 28.4 °F 57% 30.23 in 10.0 mi SSE 9.2 mph - N/A   Clear
3:15 AM 42.8 °F 36.2 °F 28.4 °F 57% 30.23 in 10.0 mi SSE 12.7 mph - N/A   Clear
3:35 AM 42.8 °F 36.6 °F 28.4 °F 57% 30.22 in 10.0 mi SSE 11.5 mph - N/A   Clear
3:55 AM 42.8 °F 36.6 °F 28.4 °F 57% 30.22 in 10.0 mi SE 11.5 mph - N/A   Clear
4:35 AM 42.8 °F 35.8 °F 28.4 °F 57% 30.22 in 10.0 mi SSE 13.8 mph - N/A   Clear
5:15 AM 39.2 °F 32.0 °F 28.4 °F 65% 30.22 in 10.0 mi SSE 11.5 mph - N/A   Clear
5:35 AM 39.2 °F 32.5 °F 28.4 °F 65% 30.22 in 10.0 mi SSE 10.4 mph - N/A   Clear
5:55 AM 39.2 °F 32.5 °F 28.4 °F 65% 30.22 in 10.0 mi South 10.4 mph - N/A   Clear
6:15 AM 39.2 °F 33.6 °F 28.4 °F 65% 30.22 in 10.0 mi South 8.1 mph - N/A   Clear
6:35 AM 39.2 °F 32.5 °F 28.4 °F 65% 30.22 in 10.0 mi SSE 10.4 mph - N/A   Clear
6:55 AM 39.2 °F 32.5 °F 28.4 °F 65% 30.22 in 10.0 mi SSE 10.4 mph - N/A   Clear
7:35 AM 39.2 °F 32.0 °F 28.4 °F 65% 30.23 in 10.0 mi SSE 11.5 mph - N/A   Clear
7:55 AM 41.0 °F 33.5 °F 28.4 °F 61% 30.23 in 10.0 mi SSE 13.8 mph - N/A   Clear
8:15 AM 42.8 °F 37.5 °F 28.4 °F 57% 30.23 in 10.0 mi SSE 9.2 mph - N/A   Clear
8:35 AM 44.6 °F 39.7 °F 30.2 °F 57% 30.23 in 10.0 mi SSE 9.2 mph - N/A   Clear
8:55 AM 46.4 °F 41.9 °F 30.2 °F 53% 30.23 in 10.0 mi SSE 9.2 mph - N/A   Clear
9:15 AM 48.2 °F - 30.2 °F 50% 30.23 in 10.0 mi SSE 9.2 mph - N/A   Clear
9:35 AM 50.0 °F - 30.2 °F 47% 30.22 in 10.0 mi SSE 6.9 mph - N/A   Clear
9:55 AM 53.6 °F - 30.2 °F 41% 30.22 in 10.0 mi SSE 8.1 mph - N/A   Clear
10:15 AM 55.4 °F - 30.2 °F 38% 30.22 in 10.0 mi SSE 8.1 mph - N/A   Clear
10:35 AM 57.2 °F - 30.2 °F 36% 30.21 in 10.0 mi SSE 8.1 mph - N/A   Clear
10:55 AM 59.0 °F - 30.2 °F 34% 30.21 in 10.0 mi SSE 5.8 mph - N/A   Clear
11:15 AM 60.8 °F - 30.2 °F 31% 30.20 in 10.0 mi South 4.6 mph - N/A   Clear
11:35 AM 62.6 °F - 30.2 °F 30% 30.19 in 10.0 mi ENE 3.5 mph - N/A   Clear
11:55 AM 64.4 °F - 32.0 °F 30% 30.18 in 10.0 mi North 3.5 mph - N/A   Clear
12:15 PM 66.2 °F - 30.2 °F 26% 30.17 in 10.0 mi NNW 6.9 mph - N/A   Clear
12:35 PM 66.2 °F - 30.2 °F 26% 30.16 in 10.0 mi North 13.8 mph 17.3 mph N/A   Clear
12:55 PM 68.0 °F - 28.4 °F 23% 30.15 in 10.0 mi North 12.7 mph 18.4 mph N/A   Clear
1:15 PM 69.8 °F - 26.6 °F 20% 30.14 in 10.0 mi NNW 15.0 mph 21.9 mph N/A   Clear
1:35 PM 69.8 °F - 26.6 °F 20% 30.12 in 10.0 mi NNW 13.8 mph - N/A   Clear
1:55 PM 69.8 °F - 28.4 °F 21% 30.11 in 10.0 mi Calm Calm - N/A   Clear
2:15 PM 69.8 °F - 26.6 °F 20% 30.11 in 10.0 mi North 13.8 mph 18.4 mph N/A   Clear
2:35 PM 71.6 °F - 24.8 °F 17% 30.10 in 10.0 mi NNW 11.5 mph 17.3 mph N/A   Clear
2:55 PM 71.6 °F - 24.8 °F 17% 30.09 in 10.0 mi NNW 16.1 mph 20.7 mph N/A   Clear
3:15 PM 71.6 °F - 26.6 °F 19% 30.09 in 10.0 mi NNW 18.4 mph 21.9 mph N/A   Clear
3:35 PM 73.4 °F - 26.6 °F 18% 30.08 in 10.0 mi NNW 17.3 mph - N/A   Clear
3:55 PM 73.4 °F - 24.8 °F 16% 30.07 in 10.0 mi NNW 15.0 mph 23.0 mph N/A   Clear
4:15 PM 73.4 °F - 24.8 °F 16% 30.07 in 10.0 mi NNW 13.8 mph 17.3 mph N/A   Clear
4:35 PM 73.4 °F - 24.8 °F 16% 30.07 in 10.0 mi NW 11.5 mph - N/A   Clear
4:55 PM 73.4 °F - 24.8 °F 16% 30.06 in 10.0 mi NNW 10.4 mph 17.3 mph N/A   Clear
5:15 PM 71.6 °F - 24.8 °F 17% 30.06 in 10.0 mi NNW 11.5 mph - N/A   Clear
5:35 PM 71.6 °F - 24.8 °F 17% 30.06 in 10.0 mi NW 13.8 mph - N/A   Clear
6:15 PM 69.8 °F - 24.8 °F 18% 30.05 in 10.0 mi North 9.2 mph - N/A   Clear
6:35 PM 69.8 °F - 24.8 °F 18% 30.05 in 10.0 mi NNW 6.9 mph - N/A   Clear
6:55 PM 66.2 °F - 24.8 °F 21% 30.05 in 10.0 mi North 5.8 mph - N/A   Clear
7:15 PM 64.4 °F - 24.8 °F 22% 30.04 in 10.0 mi NW 4.6 mph - N/A   Clear
7:35 PM 60.8 °F - 23.0 °F 23% 30.05 in 10.0 mi SW 6.9 mph - N/A   Clear
8:15 PM 57.2 °F - 23.0 °F 27% 30.06 in 10.0 mi WSW 5.8 mph - N/A   Clear
8:35 PM 57.2 °F - 23.0 °F 27% 30.06 in 10.0 mi West 3.5 mph - N/A   Clear
8:55 PM 59.0 °F - 24.8 °F 27% 30.07 in 10.0 mi Calm Calm - N/A   Clear
9:15 PM 57.2 °F - 24.8 °F 29% 30.07 in 10.0 mi ESE 5.8 mph - N/A   Clear
9:35 PM 57.2 °F - 24.8 °F 29% 30.07 in 10.0 mi SE 3.5 mph - N/A   Clear
9:55 PM 55.4 °F - 24.8 °F 31% 30.07 in 10.0 mi SSE 4.6 mph - N/A   Clear
10:15 PM 51.8 °F - 24.8 °F 35% 30.08 in 10.0 mi Calm Calm - N/A   Clear
10:35 PM 53.6 °F - 24.8 °F 33% 30.09 in 10.0 mi ESE 8.1 mph - N/A   Clear
10:55 PM 53.6 °F - 26.6 °F 35% 30.09 in 10.0 mi SSE 4.6 mph - N/A   Clear
11:15 PM 51.8 °F - 26.6 °F 38% 30.09 in 10.0 mi SW 4.6 mph - N/A   Clear
11:35 PM 48.2 °F - 26.6 °F 43% 30.09 in 10.0 mi NE 4.6 mph - N/A   Clear
11:55 PM 48.2 °F - 26.6 °F 43% 30.09 in 10.0 mi SE 4.6 mph - N/A   Clear